TimeEST,TemperatureF,Dew PointF,Humidity,Sea Level PressureIn,VisibilityMPH,Wind Direction,Wind SpeedMPH,Gust SpeedMPH,PrecipitationIn,Events,Conditions,WindDirDegrees,DateUTC
12:54 AM,45.0,43.0,93,30.31,-9999.0,Calm,Calm,-,N/A,,Unknown,0,2013-11-17 05:54:00
1:54 AM,45.0,43.0,93,30.30,-9999.0,Calm,Calm,-,N/A,,Unknown,0,2013-11-17 06:54:00
2:54 AM,46.0,44.1,93,30.29,-9999.0,Calm,Calm,-,N/A,,Unknown,0,2013-11-17 07:54:00
3:54 AM,52.0,50.0,93,30.29,-9999.0,Calm,Calm,-,N/A,,Unknown,0,2013-11-17 08:54:00
4:54 AM,53.1,51.1,93,30.29,-9999.0,Variable,3.5,-,N/A,,Unknown,0,2013-11-17 09:54:00
5:54 AM,54.0,51.1,90,30.29,-9999.0,East,3.5,-,N/A,,Unknown,80,2013-11-17 10:54:00
6:54 AM,55.0,50.0,83,30.27,-9999.0,East,4.6,-,N/A,,Unknown,100,2013-11-17 11:54:00
7:54 AM,55.0,51.1,86,30.26,-9999.0,ESE,4.6,-,N/A,,Unknown,110,2013-11-17 12:54:00
8:54 AM,57.9,53.1,84,30.26,-9999.0,SE,8.1,-,N/A,,Unknown,130,2013-11-17 13:54:00
9:54 AM,59.0,54.0,83,30.25,-9999.0,SE,8.1,-,N/A,,Unknown,130,2013-11-17 14:54:00
10:54 AM,61.0,55.0,81,30.22,-9999.0,SE,8.1,-,N/A,,Unknown,130,2013-11-17 15:54:00
11:54 AM,60.1,55.0,83,30.19,-9999.0,Variable,5.8,-,N/A,,Unknown,0,2013-11-17 16:54:00
12:54 PM,59.0,55.9,90,30.17,-9999.0,SE,4.6,-,N/A,,Unknown,140,2013-11-17 17:54:00
1:54 PM,59.0,57.0,93,30.14,-9999.0,SE,6.9,-,N/A,,Unknown,140,2013-11-17 18:54:00
2:54 PM,57.0,55.9,96,30.13,-9999.0,Variable,3.5,-,N/A,,Unknown,0,2013-11-17 19:54:00
3:54 PM,57.0,55.9,96,30.10,-9999.0,Calm,Calm,-,0.01,,Unknown,0,2013-11-17 20:54:00
4:54 PM,57.0,55.9,96,30.08,-9999.0,SSE,5.8,-,N/A,,Unknown,150,2013-11-17 21:54:00
5:54 PM,57.0,57.0,100,30.05,-9999.0,SSE,6.9,-,N/A,,Unknown,150,2013-11-17 22:54:00
6:54 PM,57.9,57.0,97,30.03,-9999.0,SSE,8.1,-,N/A,,Unknown,150,2013-11-17 23:54:00
7:54 PM,57.0,57.0,100,30.01,-9999.0,SSE,4.6,-,N/A,,Unknown,160,2013-11-18 00:54:00
8:54 PM,57.9,57.0,97,29.98,-9999.0,SSE,4.6,-,N/A,,Unknown,160,2013-11-18 01:54:00
9:54 PM,57.9,57.0,97,29.96,-9999.0,Variable,4.6,-,0.01,,Unknown,0,2013-11-18 02:54:00
10:54 PM,57.0,57.0,100,29.91,-9999.0,SSE,5.8,-,N/A,,Unknown,160,2013-11-18 03:54:00
11:54 PM,57.9,57.0,97,29.86,-9999.0,SSE,6.9,-,N/A,,Unknown,160,2013-11-18 04:54:00